Year,Month,Day,Hour,Minute,Value (Times are PST for temperature in C)
2019,03,18,00,00,7.00
2019,03,18,00,01,7.00
2019,03,18,00,02,7.00
2019,03,18,00,03,7.00
2019,03,18,00,04,7.00
2019,03,18,00,05,6.90
2019,03,18,00,06,6.90
2019,03,18,00,07,6.90
2019,03,18,00,08,6.90
2019,03,18,00,09,6.90
2019,03,18,00,10,6.90
2019,03,18,00,11,6.90
2019,03,18,00,12,6.90
2019,03,18,00,13,6.90
2019,03,18,00,14,6.90
2019,03,18,00,15,6.90
2019,03,18,00,16,6.90
2019,03,18,00,17,6.90
2019,03,18,00,18,6.80
2019,03,18,00,19,6.90
2019,03,18,00,20,6.90
2019,03,18,00,21,6.90
2019,03,18,00,22,6.90
2019,03,18,00,23,6.90
2019,03,18,00,24,6.90
2019,03,18,00,25,6.90
2019,03,18,00,26,6.90
2019,03,18,00,27,6.90
2019,03,18,00,28,6.80
2019,03,18,00,29,6.80
2019,03,18,00,30,6.80
2019,03,18,00,31,6.80
2019,03,18,00,32,6.80
2019,03,18,00,33,6.80
2019,03,18,00,34,6.80
2019,03,18,00,35,6.80
2019,03,18,00,36,6.80
2019,03,18,00,37,6.70
2019,03,18,00,38,6.70
2019,03,18,00,39,6.70
2019,03,18,00,40,6.70
2019,03,18,00,41,6.70
2019,03,18,00,42,6.70
2019,03,18,00,43,6.70
2019,03,18,00,44,6.70
2019,03,18,00,45,6.70
2019,03,18,00,46,6.60
2019,03,18,00,47,6.60
2019,03,18,00,48,6.60
2019,03,18,00,49,6.60
2019,03,18,00,50,6.60
2019,03,18,00,51,6.60
2019,03,18,00,52,6.60
2019,03,18,00,53,6.60
2019,03,18,00,54,6.60
2019,03,18,00,55,6.60
2019,03,18,00,56,6.60
2019,03,18,00,57,6.60
2019,03,18,00,58,6.60
2019,03,18,00,59,6.60
2019,03,18,01,00,6.60
2019,03,18,01,01,6.50
2019,03,18,01,02,6.50
2019,03,18,01,03,6.50
2019,03,18,01,04,6.50
2019,03,18,01,05,6.50
2019,03,18,01,06,6.50
2019,03,18,01,07,6.50
2019,03,18,01,08,6.40
2019,03,18,01,09,6.40
2019,03,18,01,10,6.40
2019,03,18,01,11,6.40
2019,03,18,01,12,6.50
2019,03,18,01,13,6.50
2019,03,18,01,14,6.50
2019,03,18,01,15,6.50
2019,03,18,01,16,6.50
2019,03,18,01,17,6.50
2019,03,18,01,18,6.40
2019,03,18,01,19,6.40
2019,03,18,01,20,6.40
2019,03,18,01,21,6.40
2019,03,18,01,22,6.40
2019,03,18,01,23,6.40
2019,03,18,01,24,6.40
2019,03,18,01,25,6.40
2019,03,18,01,26,6.40
2019,03,18,01,27,6.40
2019,03,18,01,28,6.50
2019,03,18,01,29,6.50
2019,03,18,01,30,6.60
2019,03,18,01,31,6.60
2019,03,18,01,32,6.60
2019,03,18,01,33,6.70
2019,03,18,01,34,6.80
2019,03,18,01,35,6.80
2019,03,18,01,36,6.80
2019,03,18,01,37,6.90
2019,03,18,01,38,6.90
2019,03,18,01,39,7.00
2019,03,18,01,40,7.00
2019,03,18,01,41,7.10
2019,03,18,01,42,7.10
2019,03,18,01,43,7.10
2019,03,18,01,44,7.10
2019,03,18,01,45,7.10
2019,03,18,01,46,7.10
2019,03,18,01,47,7.10
2019,03,18,01,48,7.10
2019,03,18,01,49,7.10
2019,03,18,01,50,7.20
2019,03,18,01,51,7.20
2019,03,18,01,52,7.20
2019,03,18,01,53,7.20
2019,03,18,01,54,7.20
2019,03,18,01,55,7.20
2019,03,18,01,56,7.30
2019,03,18,01,57,7.30
2019,03,18,01,58,7.30
2019,03,18,01,59,7.30
2019,03,18,02,00,7.30
2019,03,18,02,01,7.30
2019,03,18,02,02,7.30
2019,03,18,02,03,7.40
2019,03,18,02,04,7.40
2019,03,18,02,05,7.40
2019,03,18,02,06,7.40
2019,03,18,02,07,7.40
2019,03,18,02,08,7.40
2019,03,18,02,09,7.50
2019,03,18,02,10,7.50
2019,03,18,02,11,7.60
2019,03,18,02,12,7.60
2019,03,18,02,13,7.60
2019,03,18,02,14,7.60
2019,03,18,02,15,7.60
2019,03,18,02,16,7.60
2019,03,18,02,17,7.60
2019,03,18,02,18,7.60
2019,03,18,02,19,7.60
2019,03,18,02,20,7.60
2019,03,18,02,21,7.60
2019,03,18,02,22,7.60
2019,03,18,02,23,7.60
2019,03,18,02,24,7.60
2019,03,18,02,25,7.60
2019,03,18,02,26,7.60
2019,03,18,02,27,7.60
2019,03,18,02,28,7.60
2019,03,18,02,29,7.60
2019,03,18,02,30,7.60
2019,03,18,02,31,7.60
2019,03,18,02,32,7.60
2019,03,18,02,33,7.50
2019,03,18,02,34,7.50
2019,03,18,02,35,7.50
2019,03,18,02,36,7.40
2019,03,18,02,37,7.40
2019,03,18,02,38,7.40
2019,03,18,02,39,7.40
2019,03,18,02,40,7.30
2019,03,18,02,41,7.30
2019,03,18,02,42,7.30
2019,03,18,02,43,7.30
2019,03,18,02,44,7.30
2019,03,18,02,45,7.20
2019,03,18,02,46,7.20
2019,03,18,02,47,7.20
2019,03,18,02,48,7.20
2019,03,18,02,49,7.20
2019,03,18,02,50,7.20
2019,03,18,02,51,7.20
2019,03,18,02,52,7.20
2019,03,18,02,53,7.20
2019,03,18,02,54,7.20
2019,03,18,02,55,7.20
2019,03,18,02,56,7.20
2019,03,18,02,57,7.10
2019,03,18,02,58,7.10
2019,03,18,02,59,7.10
2019,03,18,03,00,7.10
2019,03,18,03,01,7.10
2019,03,18,03,02,7.10
2019,03,18,03,03,7.10
2019,03,18,03,04,7.10
2019,03,18,03,05,7.10
2019,03,18,03,06,7.10
2019,03,18,03,07,7.20
2019,03,18,03,08,7.20
2019,03,18,03,09,7.20
2019,03,18,03,10,7.20
2019,03,18,03,11,7.20
2019,03,18,03,12,7.20
2019,03,18,03,13,7.20
2019,03,18,03,14,7.20
2019,03,18,03,15,7.30
2019,03,18,03,16,7.30
2019,03,18,03,17,7.40
2019,03,18,03,18,7.40
2019,03,18,03,19,7.50
2019,03,18,03,20,7.60
2019,03,18,03,21,7.60
2019,03,18,03,22,7.70
2019,03,18,03,23,7.80
2019,03,18,03,24,7.80
2019,03,18,03,25,7.90
2019,03,18,03,26,8.00
2019,03,18,03,27,8.10
2019,03,18,03,28,8.10
2019,03,18,03,29,8.20
2019,03,18,03,30,8.30
2019,03,18,03,31,8.30
2019,03,18,03,32,8.40
2019,03,18,03,33,8.50
2019,03,18,03,34,8.60
2019,03,18,03,35,8.70
2019,03,18,03,36,8.80
2019,03,18,03,37,8.80
2019,03,18,03,38,8.90
2019,03,18,03,39,8.90
2019,03,18,03,40,9.00
2019,03,18,03,41,9.00
2019,03,18,03,42,9.00
2019,03,18,03,43,9.10
2019,03,18,03,44,9.10
2019,03,18,03,45,9.10
2019,03,18,03,46,9.10
2019,03,18,03,47,9.10
2019,03,18,03,48,9.10
2019,03,18,03,49,9.20
2019,03,18,03,50,9.20
2019,03,18,03,51,9.20
2019,03,18,03,52,9.20
2019,03,18,03,53,9.20
2019,03,18,03,54,9.20
2019,03,18,03,55,9.20
2019,03,18,03,56,9.20
2019,03,18,03,57,9.20
2019,03,18,03,58,9.20
2019,03,18,03,59,9.20
2019,03,18,04,00,9.20
2019,03,18,04,01,9.10
2019,03,18,04,02,9.10
2019,03,18,04,03,9.10
2019,03,18,04,04,9.10
2019,03,18,04,05,9.10
2019,03,18,04,06,9.10
2019,03,18,04,07,9.10
2019,03,18,04,08,9.10
2019,03,18,04,09,9.00
2019,03,18,04,10,9.00
2019,03,18,04,11,9.00
2019,03,18,04,12,9.00
2019,03,18,04,13,8.90
2019,03,18,04,14,9.00
2019,03,18,04,15,9.00
2019,03,18,04,16,9.00
2019,03,18,04,17,9.00
2019,03,18,04,18,9.00
2019,03,18,04,19,9.00
2019,03,18,04,20,9.00
2019,03,18,04,21,9.00
2019,03,18,04,22,9.10
2019,03,18,04,23,9.10
2019,03,18,04,24,9.10
2019,03,18,04,25,9.10
2019,03,18,04,26,9.10
2019,03,18,04,27,9.10
2019,03,18,04,28,9.10
2019,03,18,04,29,9.10
2019,03,18,04,30,9.10
2019,03,18,04,31,9.10
2019,03,18,04,32,9.10
2019,03,18,04,33,9.10
2019,03,18,04,34,9.10
2019,03,18,04,35,9.10
2019,03,18,04,36,9.10
2019,03,18,04,37,9.10
2019,03,18,04,38,9.00
2019,03,18,04,39,9.00
2019,03,18,04,40,9.00
2019,03,18,04,41,9.00
2019,03,18,04,42,9.00
2019,03,18,04,43,9.00
2019,03,18,04,44,9.00
2019,03,18,04,45,9.00
2019,03,18,04,46,9.00
2019,03,18,04,47,9.00
2019,03,18,04,48,8.90
2019,03,18,04,49,8.90
2019,03,18,04,50,8.90
2019,03,18,04,51,8.90
2019,03,18,04,52,8.90
2019,03,18,04,53,8.90
2019,03,18,04,54,8.90
2019,03,18,04,55,8.90
2019,03,18,04,56,8.90
2019,03,18,04,57,8.90
2019,03,18,04,58,8.90
2019,03,18,04,59,8.80
2019,03,18,05,00,8.80
2019,03,18,05,01,8.80
2019,03,18,05,02,8.80
2019,03,18,05,03,8.80
2019,03,18,05,04,8.80
2019,03,18,05,05,8.80
2019,03,18,05,06,8.80
2019,03,18,05,07,8.80
2019,03,18,05,08,8.80
2019,03,18,05,09,8.80
2019,03,18,05,10,8.80
2019,03,18,05,11,8.80
2019,03,18,05,12,8.80
2019,03,18,05,13,8.80
2019,03,18,05,14,8.80
2019,03,18,05,15,8.80
2019,03,18,05,16,8.80
2019,03,18,05,17,8.80
2019,03,18,05,18,8.80
2019,03,18,05,19,8.80
2019,03,18,05,20,8.80
2019,03,18,05,21,8.80
2019,03,18,05,22,8.80
2019,03,18,05,23,8.80
2019,03,18,05,24,8.80
2019,03,18,05,25,8.90
2019,03,18,05,26,8.90
2019,03,18,05,27,8.90
2019,03,18,05,28,8.90
2019,03,18,05,29,8.90
2019,03,18,05,30,8.90
2019,03,18,05,31,8.90
2019,03,18,05,32,8.90
2019,03,18,05,33,8.90
2019,03,18,05,34,8.90
2019,03,18,05,35,8.90
2019,03,18,05,36,8.90
2019,03,18,05,37,8.90
2019,03,18,05,38,8.90
2019,03,18,05,39,8.80
2019,03,18,05,40,8.80
2019,03,18,05,41,8.80
2019,03,18,05,42,8.80
2019,03,18,05,43,8.80
2019,03,18,05,44,8.80
2019,03,18,05,45,8.70
2019,03,18,05,46,8.70
2019,03,18,05,47,8.70
2019,03,18,05,48,8.70
2019,03,18,05,49,8.60
2019,03,18,05,50,8.60
2019,03,18,05,51,8.50
2019,03,18,05,52,8.40
2019,03,18,05,53,8.40
2019,03,18,05,54,8.30
2019,03,18,05,55,8.30
2019,03,18,05,56,8.20
2019,03,18,05,57,8.20
2019,03,18,05,58,8.10
2019,03,18,05,59,8.10
2019,03,18,06,00,8.10
2019,03,18,06,01,8.10
2019,03,18,06,02,8.10
2019,03,18,06,03,8.00
2019,03,18,06,04,8.00
2019,03,18,06,05,7.90
2019,03,18,06,06,7.90
2019,03,18,06,07,7.90
2019,03,18,06,08,7.80
2019,03,18,06,09,7.80
2019,03,18,06,10,7.80
2019,03,18,06,11,7.70
2019,03,18,06,12,7.70
2019,03,18,06,13,7.60
2019,03,18,06,14,7.60
2019,03,18,06,15,7.50
2019,03,18,06,16,7.50
2019,03,18,06,17,7.50
2019,03,18,06,18,7.40
2019,03,18,06,19,7.40
2019,03,18,06,20,7.40
2019,03,18,06,21,7.40
2019,03,18,06,22,7.40
2019,03,18,06,23,7.40
2019,03,18,06,24,7.40
2019,03,18,06,25,7.40
2019,03,18,06,26,7.50
2019,03,18,06,27,7.50
2019,03,18,06,28,7.50
2019,03,18,06,29,7.50
2019,03,18,06,30,7.50
2019,03,18,06,31,7.50
2019,03,18,06,32,7.50
2019,03,18,06,33,7.50
2019,03,18,06,34,7.50
2019,03,18,06,35,7.50
2019,03,18,06,36,7.50
2019,03,18,06,37,7.40
2019,03,18,06,38,7.40
2019,03,18,06,39,7.40
2019,03,18,06,40,7.40
2019,03,18,06,41,7.40
2019,03,18,06,42,7.40
2019,03,18,06,43,7.40
2019,03,18,06,44,7.50
2019,03,18,06,45,7.50
2019,03,18,06,46,7.50
2019,03,18,06,47,7.50
2019,03,18,06,48,7.40
2019,03,18,06,49,7.50
2019,03,18,06,50,7.50
2019,03,18,06,51,7.40
2019,03,18,06,52,7.40
2019,03,18,06,53,7.40
2019,03,18,06,54,7.40
2019,03,18,06,55,7.40
2019,03,18,06,56,7.40
2019,03,18,06,57,7.40
2019,03,18,06,58,7.40
2019,03,18,06,59,7.40
2019,03,18,07,00,7.40
2019,03,18,07,01,7.40
2019,03,18,07,02,7.40
2019,03,18,07,03,7.30
2019,03,18,07,04,7.30
2019,03,18,07,05,7.30
2019,03,18,07,06,7.30
2019,03,18,07,07,7.30
2019,03,18,07,08,7.30
2019,03,18,07,09,7.30
2019,03,18,07,10,7.30
2019,03,18,07,11,7.20
2019,03,18,07,12,7.20
2019,03,18,07,13,7.20
2019,03,18,07,14,7.20
2019,03,18,07,15,7.20
2019,03,18,07,16,7.20
2019,03,18,07,17,7.20
2019,03,18,07,18,7.10
2019,03,18,07,19,7.10
2019,03,18,07,20,7.10
2019,03,18,07,21,7.10
2019,03,18,07,22,7.10
2019,03,18,07,23,7.10
2019,03,18,07,24,7.10
2019,03,18,07,25,7.10
2019,03,18,07,26,7.10
2019,03,18,07,27,7.00
2019,03,18,07,28,7.00
2019,03,18,07,29,7.00
2019,03,18,07,30,7.00
2019,03,18,07,31,7.00
2019,03,18,07,32,7.00
2019,03,18,07,33,7.00
2019,03,18,07,34,7.00
2019,03,18,07,35,6.90
2019,03,18,07,36,6.90
2019,03,18,07,37,6.90
2019,03,18,07,38,7.00
2019,03,18,07,39,7.00
2019,03,18,07,40,6.90
2019,03,18,07,41,6.90
2019,03,18,07,42,6.90
2019,03,18,07,43,6.90
2019,03,18,07,44,6.90
2019,03,18,07,45,6.90
2019,03,18,07,46,6.80
2019,03,18,07,47,6.80
2019,03,18,07,48,6.80
2019,03,18,07,49,6.80
2019,03,18,07,50,6.80
2019,03,18,07,51,6.70
2019,03,18,07,52,6.70
2019,03,18,07,53,6.70
2019,03,18,07,54,6.70
2019,03,18,07,55,6.70
2019,03,18,07,56,6.60
2019,03,18,07,57,6.60
2019,03,18,07,58,6.60
2019,03,18,07,59,6.60
2019,03,18,08,00,6.60
2019,03,18,08,01,6.70
2019,03,18,08,02,6.60
2019,03,18,08,03,6.70
2019,03,18,08,04,6.70
2019,03,18,08,05,6.70
2019,03,18,08,06,6.70
2019,03,18,08,07,6.70
2019,03,18,08,08,6.70
2019,03,18,08,09,6.70
2019,03,18,08,10,6.80
2019,03,18,08,11,6.80
2019,03,18,08,12,6.90
2019,03,18,08,13,6.90
2019,03,18,08,14,6.90
2019,03,18,08,15,6.90
2019,03,18,08,16,6.90
2019,03,18,08,17,6.90
2019,03,18,08,18,7.00
2019,03,18,08,19,7.20
2019,03,18,08,20,7.30
2019,03,18,08,21,7.30
2019,03,18,08,22,7.40
2019,03,18,08,23,7.50
2019,03,18,08,24,7.60
2019,03,18,08,25,7.70
2019,03,18,08,26,7.80
2019,03,18,08,27,7.90
2019,03,18,08,28,8.00
2019,03,18,08,29,8.10
2019,03,18,08,30,8.20
2019,03,18,08,31,8.30
2019,03,18,08,32,8.40
2019,03,18,08,33,8.50
2019,03,18,08,34,8.60
2019,03,18,08,35,8.70
2019,03,18,08,36,8.80
2019,03,18,08,37,8.80
2019,03,18,08,38,8.90
2019,03,18,08,39,9.00
2019,03,18,08,40,9.10
2019,03,18,08,41,9.10
2019,03,18,08,42,9.20
2019,03,18,08,43,9.30
2019,03,18,08,44,9.40
2019,03,18,08,45,9.50
2019,03,18,08,46,9.60
2019,03,18,08,47,9.70
2019,03,18,08,48,9.80
2019,03,18,08,49,9.90
2019,03,18,08,50,10.00
2019,03,18,08,51,10.10
2019,03,18,08,52,10.20
2019,03,18,08,53,10.30
2019,03,18,08,54,10.40
2019,03,18,08,55,10.50
2019,03,18,08,56,10.60
2019,03,18,08,57,10.70
2019,03,18,08,58,10.70
2019,03,18,08,59,10.80
2019,03,18,09,00,10.90
2019,03,18,09,01,11.00
2019,03,18,09,02,11.00
2019,03,18,09,03,11.10
2019,03,18,09,04,11.20
2019,03,18,09,05,11.30
2019,03,18,09,06,11.30
2019,03,18,09,07,11.40
2019,03,18,09,08,11.50
2019,03,18,09,09,11.50
2019,03,18,09,10,11.60
2019,03,18,09,11,11.70
2019,03,18,09,12,11.70
2019,03,18,09,13,11.80
2019,03,18,09,14,11.80
2019,03,18,09,15,11.90
2019,03,18,09,16,11.90
2019,03,18,09,17,12.00
2019,03,18,09,18,12.00
2019,03,18,09,19,12.10
2019,03,18,09,20,12.10
2019,03,18,09,21,12.10
2019,03,18,09,22,12.20
2019,03,18,09,23,12.20
2019,03,18,09,24,12.20
2019,03,18,09,25,12.20
2019,03,18,09,26,12.20
2019,03,18,09,27,12.30
2019,03,18,09,28,12.30
2019,03,18,09,29,12.30
2019,03,18,09,30,12.30
2019,03,18,09,31,12.40
2019,03,18,09,32,12.40
2019,03,18,09,33,12.40
2019,03,18,09,34,12.40
2019,03,18,09,35,12.40
2019,03,18,09,36,12.40
2019,03,18,09,37,12.50
2019,03,18,09,38,12.50
2019,03,18,09,39,12.50
2019,03,18,09,40,12.50
2019,03,18,09,41,12.50
2019,03,18,09,42,12.50
2019,03,18,09,43,12.60
2019,03,18,09,44,12.60
2019,03,18,09,45,12.60
2019,03,18,09,46,12.70
2019,03,18,09,47,12.70
2019,03,18,09,48,12.80
2019,03,18,09,49,12.90
2019,03,18,09,50,12.90
2019,03,18,09,51,13.00
2019,03,18,09,52,13.00
2019,03,18,09,53,13.10
2019,03,18,09,54,13.10
2019,03,18,09,55,13.20
2019,03,18,09,56,13.20
2019,03,18,09,57,13.20
2019,03,18,09,58,13.20
2019,03,18,09,59,13.20
2019,03,18,10,00,13.20
2019,03,18,10,01,13.20
2019,03,18,10,02,13.10
2019,03,18,10,03,13.10
2019,03,18,10,04,13.10
2019,03,18,10,05,13.10
2019,03,18,10,06,13.10
2019,03,18,10,07,13.10
2019,03,18,10,08,13.10
2019,03,18,10,09,13.10
2019,03,18,10,10,13.10
2019,03,18,10,11,13.20
2019,03,18,10,12,13.20
2019,03,18,10,13,13.20
2019,03,18,10,14,13.20
2019,03,18,10,15,13.30
2019,03,18,10,16,13.30
2019,03,18,10,17,13.30
2019,03,18,10,18,13.30
2019,03,18,10,19,13.30
2019,03,18,10,20,13.40
2019,03,18,10,21,13.40
2019,03,18,10,22,13.50
2019,03,18,10,23,13.50
2019,03,18,10,24,13.60
2019,03,18,10,25,13.60
2019,03,18,10,26,13.60
2019,03,18,10,27,13.60
2019,03,18,10,28,13.60
2019,03,18,10,29,13.50
2019,03,18,10,30,13.60
2019,03,18,10,31,13.60
2019,03,18,10,32,13.60
2019,03,18,10,33,13.60
2019,03,18,10,34,13.70
2019,03,18,10,35,13.70
2019,03,18,10,36,13.80
2019,03,18,10,37,13.80
2019,03,18,10,38,13.90
2019,03,18,10,39,13.90
2019,03,18,10,40,13.90
2019,03,18,10,41,13.90
2019,03,18,10,42,13.90
2019,03,18,10,43,13.90
2019,03,18,10,44,13.90
2019,03,18,10,45,13.90
2019,03,18,10,46,13.90
2019,03,18,10,47,13.80
2019,03,18,10,48,13.80
2019,03,18,10,49,13.80
2019,03,18,10,50,13.80
2019,03,18,10,51,13.80
2019,03,18,10,52,13.80
2019,03,18,10,53,13.90
2019,03,18,10,54,13.90
2019,03,18,10,55,13.90
2019,03,18,10,56,13.90
2019,03,18,10,57,13.90
2019,03,18,10,58,13.90
2019,03,18,10,59,13.90
2019,03,18,11,00,13.90
2019,03,18,11,01,13.90
2019,03,18,11,02,13.90
2019,03,18,11,03,13.90
2019,03,18,11,04,13.90
2019,03,18,11,05,14.00
2019,03,18,11,06,14.00
2019,03,18,11,07,14.10
2019,03,18,11,08,14.20
2019,03,18,11,09,14.20
2019,03,18,11,10,14.20
2019,03,18,11,11,14.30
2019,03,18,11,12,14.30
2019,03,18,11,13,14.30
2019,03,18,11,14,14.30
2019,03,18,11,15,14.30
2019,03,18,11,16,14.40
2019,03,18,11,17,14.40
2019,03,18,11,18,14.40
2019,03,18,11,19,14.40
2019,03,18,11,20,14.40
2019,03,18,11,21,14.40
2019,03,18,11,22,14.40
2019,03,18,11,23,14.50
2019,03,18,11,24,14.60
2019,03,18,11,25,14.70
2019,03,18,11,26,14.70
2019,03,18,11,27,14.80
2019,03,18,11,28,14.80
2019,03,18,11,29,14.90
2019,03,18,11,30,15.00
2019,03,18,11,31,15.00
2019,03,18,11,32,15.00
2019,03,18,11,33,14.90
2019,03,18,11,34,14.90
2019,03,18,11,35,14.80
2019,03,18,11,36,14.80
2019,03,18,11,37,14.80
2019,03,18,11,38,14.70
2019,03,18,11,39,14.70
2019,03,18,11,40,14.70
2019,03,18,11,41,14.80
2019,03,18,11,42,14.80
2019,03,18,11,43,14.90
2019,03,18,11,44,15.00
2019,03,18,11,45,15.10
2019,03,18,11,46,15.20
2019,03,18,11,47,15.30
2019,03,18,11,48,15.30
2019,03,18,11,49,15.30
2019,03,18,11,50,15.40
2019,03,18,11,51,15.40
2019,03,18,11,52,15.40
2019,03,18,11,53,15.40
2019,03,18,11,54,15.40
2019,03,18,11,55,15.50
2019,03,18,11,56,15.50
2019,03,18,11,57,15.60
2019,03,18,11,58,15.60
2019,03,18,11,59,15.70
2019,03,18,12,00,15.70
2019,03,18,12,01,15.70
2019,03,18,12,02,15.70
2019,03,18,12,03,15.80
2019,03,18,12,04,15.80
2019,03,18,12,05,15.80
2019,03,18,12,06,15.80
2019,03,18,12,07,15.90
2019,03,18,12,08,15.90
2019,03,18,12,09,15.90
2019,03,18,12,10,16.00
2019,03,18,12,11,16.00
2019,03,18,12,12,16.00
2019,03,18,12,13,15.90
2019,03,18,12,14,15.90
2019,03,18,12,15,15.90
2019,03,18,12,16,15.90
2019,03,18,12,17,15.90
2019,03,18,12,18,15.90
2019,03,18,12,19,15.90
2019,03,18,12,20,15.80
2019,03,18,12,21,15.80
2019,03,18,12,22,15.80
2019,03,18,12,23,15.80
2019,03,18,12,24,15.80
2019,03,18,12,25,15.80
2019,03,18,12,26,15.80
2019,03,18,12,27,15.80
2019,03,18,12,28,15.80
2019,03,18,12,29,15.80
2019,03,18,12,30,15.80
2019,03,18,12,31,15.90
2019,03,18,12,32,15.90
2019,03,18,12,33,15.90
2019,03,18,12,34,15.90
2019,03,18,12,35,15.90
2019,03,18,12,36,15.90
2019,03,18,12,37,16.00
2019,03,18,12,38,16.10
2019,03,18,12,39,16.10
2019,03,18,12,40,16.20
2019,03,18,12,41,16.20
2019,03,18,12,42,16.30
2019,03,18,12,43,16.40
2019,03,18,12,44,16.40
2019,03,18,12,45,16.50
2019,03,18,12,46,16.50
2019,03,18,12,47,16.60
2019,03,18,12,48,16.60
2019,03,18,12,49,16.60
2019,03,18,12,50,16.60
2019,03,18,12,51,16.60
2019,03,18,12,52,16.60
2019,03,18,12,53,16.60
2019,03,18,12,54,16.60
2019,03,18,12,55,16.60
2019,03,18,12,56,16.60
2019,03,18,12,57,16.70
2019,03,18,12,58,16.80
2019,03,18,12,59,16.80
2019,03,18,13,00,16.80
2019,03,18,13,01,16.90
2019,03,18,13,02,16.90
2019,03,18,13,03,16.90
2019,03,18,13,04,16.90
2019,03,18,13,05,16.90
2019,03,18,13,06,17.00
2019,03,18,13,07,17.10
2019,03,18,13,08,17.10
2019,03,18,13,09,17.20
2019,03,18,13,10,17.30
2019,03,18,13,11,17.30
2019,03,18,13,12,17.30
2019,03,18,13,13,17.30
2019,03,18,13,14,17.40
2019,03,18,13,15,17.40
2019,03,18,13,16,17.40
2019,03,18,13,17,17.40
2019,03,18,13,18,17.40
2019,03,18,13,19,17.50
2019,03,18,13,20,17.50
2019,03,18,13,21,17.60
2019,03,18,13,22,17.60
2019,03,18,13,23,17.70
2019,03,18,13,24,17.70
2019,03,18,13,25,17.70
2019,03,18,13,26,17.60
2019,03,18,13,27,17.60
2019,03,18,13,28,17.70
2019,03,18,13,29,17.70
2019,03,18,13,30,17.80
2019,03,18,13,31,17.80
2019,03,18,13,32,17.90
2019,03,18,13,33,18.00
2019,03,18,13,34,18.10
2019,03,18,13,35,18.10
2019,03,18,13,36,18.20
2019,03,18,13,37,18.20
2019,03,18,13,38,18.20
2019,03,18,13,39,18.20
2019,03,18,13,40,18.10
2019,03,18,13,41,18.20
2019,03,18,13,42,18.20
2019,03,18,13,43,18.20
2019,03,18,13,44,18.30
2019,03,18,13,45,18.30
2019,03,18,13,46,18.30
2019,03,18,13,47,18.30
2019,03,18,13,48,18.30
2019,03,18,13,49,18.40
2019,03,18,13,50,18.40
2019,03,18,13,51,18.40
2019,03,18,13,52,18.50
2019,03,18,13,53,18.50
2019,03,18,13,54,18.50
2019,03,18,13,55,18.50
2019,03,18,13,56,18.50
2019,03,18,13,57,18.60
2019,03,18,13,58,18.60
2019,03,18,13,59,18.70
2019,03,18,14,00,18.80
2019,03,18,14,01,18.80
2019,03,18,14,02,18.90
2019,03,18,14,03,19.00
2019,03,18,14,04,19.10
2019,03,18,14,05,19.10
2019,03,18,14,06,19.20
2019,03,18,14,07,19.10
2019,03,18,14,08,19.10
2019,03,18,14,09,19.20
2019,03,18,14,10,19.20
2019,03,18,14,11,19.20
2019,03,18,14,12,19.20
2019,03,18,14,13,19.30
2019,03,18,14,14,19.30
2019,03,18,14,15,19.30
2019,03,18,14,16,19.30
2019,03,18,14,17,19.20
2019,03,18,14,18,19.10
2019,03,18,14,19,19.10
2019,03,18,14,20,19.10
2019,03,18,14,21,19.10
2019,03,18,14,22,19.10
2019,03,18,14,23,19.10
2019,03,18,14,24,19.20
2019,03,18,14,25,19.20
2019,03,18,14,26,19.20
2019,03,18,14,27,19.30
2019,03,18,14,28,19.30
2019,03,18,14,29,19.30
2019,03,18,14,30,19.40
2019,03,18,14,31,19.50
2019,03,18,14,32,19.50
2019,03,18,14,33,19.50
2019,03,18,14,34,19.50
2019,03,18,14,35,19.40
2019,03,18,14,36,19.40
2019,03,18,14,37,19.40
2019,03,18,14,38,19.40
2019,03,18,14,39,19.30
2019,03,18,14,40,19.30
2019,03,18,14,41,19.30
2019,03,18,14,42,19.30
2019,03,18,14,43,19.20
2019,03,18,14,44,19.20
2019,03,18,14,45,19.20
2019,03,18,14,46,19.20
2019,03,18,14,47,19.20
2019,03,18,14,48,19.30
2019,03,18,14,49,19.30
2019,03,18,14,50,19.40
2019,03,18,14,51,19.50
2019,03,18,14,52,19.50
2019,03,18,14,53,19.60
2019,03,18,14,54,19.70
2019,03,18,14,55,19.70
2019,03,18,14,56,19.80
2019,03,18,14,57,19.80
2019,03,18,14,58,19.80
2019,03,18,14,59,19.80
2019,03,18,15,00,19.80
2019,03,18,15,01,19.90
2019,03,18,15,02,19.90
2019,03,18,15,03,19.90
2019,03,18,15,04,19.90
2019,03,18,15,05,19.90
2019,03,18,15,06,19.90
2019,03,18,15,07,19.90
2019,03,18,15,08,19.90
2019,03,18,15,09,19.90
2019,03,18,15,10,19.90
2019,03,18,15,11,19.90
2019,03,18,15,12,19.90
2019,03,18,15,13,19.90
2019,03,18,15,14,19.90
2019,03,18,15,15,20.00
2019,03,18,15,16,20.00
2019,03,18,15,17,20.00
2019,03,18,15,18,20.10
2019,03,18,15,19,20.20
2019,03,18,15,20,20.20
2019,03,18,15,21,20.20
2019,03,18,15,22,20.20
2019,03,18,15,23,20.30
2019,03,18,15,24,20.30
2019,03,18,15,25,20.30
2019,03,18,15,26,20.30
2019,03,18,15,27,20.30
2019,03,18,15,28,20.30
2019,03,18,15,29,20.40
2019,03,18,15,30,20.40
2019,03,18,15,31,20.40
2019,03,18,15,32,20.50
2019,03,18,15,33,20.50
2019,03,18,15,34,20.50
2019,03,18,15,35,20.60
2019,03,18,15,36,20.60
2019,03,18,15,37,20.60
2019,03,18,15,38,20.50
2019,03,18,15,39,20.50
2019,03,18,15,40,20.60
2019,03,18,15,41,20.60
2019,03,18,15,42,20.60
2019,03,18,15,43,20.60
2019,03,18,15,44,20.60
2019,03,18,15,45,20.70
2019,03,18,15,46,20.70
2019,03,18,15,47,20.70
2019,03,18,15,48,20.70
2019,03,18,15,49,20.70
2019,03,18,15,50,20.80
2019,03,18,15,51,20.80
2019,03,18,15,52,20.80
2019,03,18,15,53,20.80
2019,03,18,15,54,20.80
2019,03,18,15,55,20.80
2019,03,18,15,56,20.80
2019,03,18,15,57,20.80
2019,03,18,15,58,20.80
2019,03,18,15,59,20.80
2019,03,18,16,00,20.80
2019,03,18,16,01,20.80
2019,03,18,16,02,20.80
2019,03,18,16,03,20.80
2019,03,18,16,04,20.70
2019,03,18,16,05,20.70
2019,03,18,16,06,20.70
2019,03,18,16,07,20.70
2019,03,18,16,08,20.70
2019,03,18,16,09,20.60
2019,03,18,16,10,20.60
2019,03,18,16,11,20.60
2019,03,18,16,12,20.60
2019,03,18,16,13,20.60
2019,03,18,16,14,20.60
2019,03,18,16,15,20.60
2019,03,18,16,16,20.60
2019,03,18,16,17,20.70
2019,03,18,16,18,20.70
2019,03,18,16,19,20.70
2019,03,18,16,20,20.60
2019,03,18,16,21,20.60
2019,03,18,16,22,20.60
2019,03,18,16,23,20.70
2019,03,18,16,24,20.70
2019,03,18,16,25,20.70
2019,03,18,16,26,20.70
2019,03,18,16,27,20.80
2019,03,18,16,28,20.80
2019,03,18,16,29,20.80
2019,03,18,16,30,20.80
2019,03,18,16,31,20.90
2019,03,18,16,32,20.90
2019,03,18,16,33,21.00
2019,03,18,16,34,21.10
2019,03,18,16,35,21.10
2019,03,18,16,36,21.10
2019,03,18,16,37,21.20
2019,03,18,16,38,21.20
2019,03,18,16,39,21.20
2019,03,18,16,40,21.20
2019,03,18,16,41,21.20
2019,03,18,16,42,21.10
2019,03,18,16,43,21.10
2019,03,18,16,44,21.10
2019,03,18,16,45,21.00
2019,03,18,16,46,21.00
2019,03,18,16,47,20.90
2019,03,18,16,48,20.90
2019,03,18,16,49,20.90
2019,03,18,16,50,20.80
2019,03,18,16,51,20.80
2019,03,18,16,52,20.80
2019,03,18,16,53,20.80
2019,03,18,16,54,20.90
2019,03,18,16,55,20.90
2019,03,18,16,56,20.90
2019,03,18,16,57,20.80
2019,03,18,16,58,20.80
2019,03,18,16,59,20.80
2019,03,18,17,00,20.80
2019,03,18,17,01,20.80
2019,03,18,17,02,20.80
2019,03,18,17,03,20.70
2019,03,18,17,04,20.70
2019,03,18,17,05,20.60
2019,03,18,17,06,20.60
2019,03,18,17,07,20.60
2019,03,18,17,08,20.50
2019,03,18,17,09,20.50
2019,03,18,17,10,20.40
2019,03,18,17,11,20.40
2019,03,18,17,12,20.40
2019,03,18,17,13,20.30
2019,03,18,17,14,20.30
2019,03,18,17,15,20.30
2019,03,18,17,16,20.30
2019,03,18,17,17,20.20
2019,03,18,17,18,20.20
2019,03,18,17,19,20.10
2019,03,18,17,20,20.10
2019,03,18,17,21,20.10
2019,03,18,17,22,20.10
2019,03,18,17,23,20.10
2019,03,18,17,24,20.20
2019,03,18,17,25,20.20
2019,03,18,17,26,20.20
2019,03,18,17,27,20.20
2019,03,18,17,28,20.20
2019,03,18,17,29,20.20
2019,03,18,17,30,20.20
2019,03,18,17,31,20.20
2019,03,18,17,32,20.20
2019,03,18,17,33,20.10
2019,03,18,17,34,20.10
2019,03,18,17,35,20.10
2019,03,18,17,36,20.00
2019,03,18,17,37,20.00
2019,03,18,17,38,20.00
2019,03,18,17,39,19.90
2019,03,18,17,40,19.90
2019,03,18,17,41,19.80
2019,03,18,17,42,19.80